This demonstration page uses our WeatherBlox Daily Observations layout. Learn more.

Left ArrowRight Arrow

31.31129, -92.44514

Hourly Observations for August 19, 2022

Temp ( °F °C ) Dew Point ( °F °C ) Humidity (%) Winds ( mph kmh ) Pressure ( in mb ) Visibility ( mi km ) Precip ( " mm )
12:53 am 00:53 Mostly Clear 78 25.6 74 23.3 87 87 Calm 29.93 1014 10 16 0.00 0.00
1:53 am 01:53 Mostly Clear 78 25.6 73 22.8 85 85 Calm 29.92 1013 10 16 0.00 0.00
2:53 am 02:53 Mostly Clear 77 25 74 23.3 90 90 SSE 3 6 29.92 1013 10 16 0.00 0.00
3:53 am 03:53 Cloudy 76 24.4 74 23.3 94 94 Calm 29.92 1013 9 14 0.00 0.00
4:53 am 04:53 Clear 76 24.4 73 22.8 91 91 Calm 29.92 1013 9 14 0.00 0.00
5:53 am 05:53 Mostly Clear 76 24.4 73 22.8 91 91 Calm 29.92 1013 8 13 0.00 0.00
6:53 am 06:53 Partly Cloudy 75 23.9 72 22.2 90 90 Calm 29.93 1014 7 11 0.00 0.00
7:53 am 07:53 Sunny 76 24.4 72 22.2 88 88 Calm 29.94 1014 10 16 0.00 0.00
8:53 am 08:53 Sunny 79 26.1 72 22.2 79 79 WNW 5 7 29.96 1014 10 16 0.00 0.00
9:53 am 09:53 Mostly Cloudy 82 27.8 72 22.2 72 72 Calm 29.97 1015 10 16 0.00 0.00
10:53 am 10:53 Cloudy 83 28.3 72 22.2 70 70 Calm 29.97 1015 10 16 0.00 0.00
11:53 am 11:53 Cloudy 86 30 72 22.2 63 63 WSW 5 7 29.97 1015 10 16 0.00 0.00
12:53 pm 12:53 Cloudy 86 30 72 22.2 63 63 NW 6 9 29.96 1014 10 16 0.00 0.00
1:53 pm 13:53 Sunny 88 31.1 71 21.7 57 57 W 6 9 29.93 1014 10 16 0.00 0.00
2:53 pm 14:53 Mostly Cloudy 89 31.7 71 21.7 56 56 SW 7 11 29.92 1013 10 16 0.00 0.00
3:53 pm 15:53 Mostly Cloudy 91 32.8 71 21.7 52 52 SW 7 11 29.91 1013 10 16 0.00 0.00
4:53 pm 16:53 Partly Cloudy with Thunderstorms 92 33.3 71 21.7 51 51 VRB 6 9 29.90 1013 10 16 0.00 0.00
5:10 pm 17:10 Mostly Cloudy 85 29.4 71 21.7 63 63 S 16 26 29.91 1013 10 16 0.00 0.00
5:23 pm 17:23 Cloudy with Thunderstorms 86 30 74 23.3 67 67 S 9 15 29.89 1012 9 14 0.00 0.00
5:38 pm 17:38 Mostly Cloudy 87 30.6 74 23.3 65 65 S 8 13 29.89 1012 10 16 0.01 0.13
5:53 pm 17:53 Mostly Sunny 87 30.6 74 23.3 65 65 S 7 11 29.91 1013 10 16 0.01 0.13
6:53 pm 18:53 Sunny 86 30 74 23.3 67 67 S 6 9 29.90 1013 10 16 0.00 0.00
7:53 pm 19:53 Clear 82 27.8 75 23.9 79 79 SSE 7 11 29.91 1013 10 16 0.00 0.00
8:53 pm 20:53 Clear 80 26.7 74 23.3 82 82 S 5 7 29.93 1014 10 16 0.00 0.00
9:53 pm 21:53 Partly Cloudy 79 26.1 74 23.3 85 85 SSE 6 9 29.96 1015 10 16 0.00 0.00
10:53 pm 22:53 Clear 78 25.6 73 22.8 85 85 SSW 6 9 29.97 1015 10 16 0.00 0.00
11:53 pm 23:53 Clear 79 26.1 70 21.1 74 74 SSW 6 9 29.97 1015 10 16 0.00 0.00

Powered by AerisWeather